Regional Weather Roundup
Issued by NWS Cleveland, OH

Home | Current Version | Previous Version | Graphics & Text | Print | Product List | Glossary On
Versions: 1 2 3 4 5 6 7 8 9 10 11 12 13 14 15 16 17 18 19 20 21 22 23 24 25 26 27 28 29 30 31 32 33 34 35 36 37 38 39 40 41 42 43 44 45 46 47 48 49 50
000
ASUS41 KCLE 301810
RWRCLE
OHIO REGIONAL WEATHER ROUNDUP
NATIONAL WEATHER SERVICE CLEVELAND, OH
200 PM EDT WED JUL 30 2014

NOTE: "FAIR" INDICATES FEW OR NO CLOUDS BELOW 12,000 FEET WITH NO
SIGNIFICANT WEATHER AND/OR OBSTRUCTIONS TO VISIBILITY.

OHZ001>008-015>018-024>027-034-035-043-044-301900-
   NORTHWEST OHIO

CITY           SKY/WX    TMP DP  RH WIND       PRES   REMARKS
DEFIANCE       FAIR      75  57  53 VRB5      30.02F
FINDLAY        FAIR      76  59  55 W13       30.01F
TOLEDO EXPRESS CLOUDY    75  55  49 W7        30.00F
TOLEDO EXEC    PTSUNNY   74  55  51 W8        30.00F
LIMA           FAIR      74  61  63 MISG      30.03F
$$

OHZ009>014-019>023-028>033-038-089-301900-
   NORTHEAST OHIO

CITY           SKY/WX    TMP DP  RH WIND       PRES   REMARKS
CLE-HOPKINS    TSTM      65  58  78 SW9G21    30.03F
CLE-LAKEFRONT  PTSUNNY   73  59  61 W10       30.00F
CUY CO. ARPT   NOT AVBL
LORAIN-ELYRIA  FAIR      76  58  53 W8        30.02F
ASHTABULA      FAIR      68  57  68 NW8G17    30.01F THUNDER
AKRON-CANTON   CLOUDY    70  54  56 W7        30.04F
WOOSTER        PTSUNNY   69  56  62 W9        30.04F
MANSFIELD      PTSUNNY   71  58  63 W8        30.03F
YOUNGSTOWN     CLOUDY    73  56  54 W13G21    30.02F
$$

OHZ042-051>053-060>062-070>072-077>081-301900-
  SOUTHWEST OHIO

CITY           SKY/WX    TMP DP  RH WIND       PRES   REMARKS
CINC-COVINGTON PTSUNNY   78  59  51 W12G20    30.06F
CINC-LUNKEN    PTSUNNY   79  60  52 W8        30.05F
HAMILTON       FAIR      77  61  57 VRB7      30.05F
DAYTON         PTSUNNY   76  58  53 W14G21    30.04F
WRIGHT-PAT AFB PTSUNNY   72  63  73 E8        30.03F
DAYTON GENERAL FAIR      77  60  55 W14       30.03F
WILMINGTON     PTSUNNY   74  58  57 S16G23    30.03F
$$

OHZ036-037-039>041-045>050-054>059-063>069-073>076-082>088-301900-
  CENTRAL AND SOUTHEAST OHIO

CITY           SKY/WX    TMP DP  RH WIND       PRES   REMARKS
COLUMBUS       CLOUDY    77  56  48 SW10G18   30.01F
OSU AIRPORT    FAIR      73  59  61 SW10      30.02F
BOLTON FIELD   TSTM      70  63  78 SW6       30.04F
RICKENBACK AFB PTSUNNY   78  54  43 S9        30.01F
NEWARK         PTSUNNY   74  58  57 S7        30.02F
MARION         PTSUNNY   72  60  66 VRB6      30.02F
LANCASTER      FAIR      75  60  59 SW8       30.04F
ZANESVILLE     PTSUNNY   73  56  54 VRB3      30.04F
NEW PHILLY     PTSUNNY   71  59  65 W6        30.05F
$$



USA.gov is the U.S. government's official web portal to all federal, state and local government web resources and services.